Regional Weather Roundup
Issued by NWS State College, PA

Home | Current Version | Previous Version | Text Only | Print | Product List | Glossary On
Versions: 1 2 3 4 5 6 7 8 9 10 11 12 13 14 15 16 17 18 19 20 21 22 23 24 25 26 27 28 29 30 31 32 33 34 35 36 37 38 39 40 41 42 43 44 45 46 47 48 49 50
000
ASUS41 KCTP 301310
RWRCTP

REGIONAL WEATHER ROUNDUP
NATIONAL WEATHER SERVICE STATE COLLEGE PA
900 AM EDT TUE JUN 30 2015

Note: "fair" indicates few or no clouds below 12,000 feet with no
significant weather and/or obstructions to visibility.

* = STATION THAT DOES NOT REPORT PRECIPITATION /E.G. RAIN...SNOW...ETC/
    THUNDER OR FOG.

PAZ002>004-007>009-013>016-020>023-029>032-301400-
WESTERN PENNSYLVANIA

CITY           SKY/WX    TMP DP  RH WIND       PRES   REMARKS
ERIE           CLOUDY    66  61  84 S10       29.82R
MEADVILLE      CLOUDY    63  61  93 SW10      29.85R FOG
FRANKLIN*      CLOUDY    63  59  88 SW7       29.88R
NEW CASTLE     PTSUNNY   68  65  90 CALM      29.87R
BEAVER COUNTY  CLOUDY    66  63  88 SW8       29.87R
BUTLER*        CLOUDY    66  63  88 SW10      29.89S
PITTSBURGH INT CLOUDY    68  63  84 VRB7      29.87S
PITTSBURGH     CLOUDY    67  61  81 S7        29.88S
INDIANA*       CLOUDY    66  64  94 SW6       29.93S
LATROBE        CLOUDY    66  66 100 SW12      29.91R
WASHINGTON CO* NOT AVBL
$$

PAZ004>006-010>012-017>019-024>028-033>037-041-042-045-046-049>053-301400-
CENTRAL PENNSYLVANIA

CITY           SKY/WX    TMP DP  RH WIND       PRES   REMARKS
BRADFORD       CLOUDY    60  58  92 SE9       29.88S
DUBOIS         CLOUDY    63  60  90 S6        29.88S
CLEARFIELD     CLOUDY    61  59  93 N3        29.90S
JOHNSTOWN      CLOUDY    64  61  90 SW8       29.93R
ALTOONA        PTSUNNY   68  62  81 CALM      29.91S
STATE COLLEGE  CLOUDY    64  61  88 CALM      29.91S
WILLIAMSPORT   LGT RAIN  66  62  87 CALM      29.89F
SELINSGROVE    LGT RAIN  67  64  90 SE5       29.91S
FT INDIANTOWN  CLOUDY    66  64  92 NE2       29.93R
CAPITAL CITY   CLOUDY    70  64  81 NE3       29.91S
HARRISBURG     CLOUDY    70  66  87 CALM      29.90S
YORK           CLOUDY    72  67  84 SE3       29.91S
$$

PAZ038>040-043-044-047-048-054-055-060>062-067>071-301400-
EASTERN PENNSYLVANIA

CITY           SKY/WX    TMP DP  RH WIND       PRES   REMARKS
SCRANTON       LGT RAIN  67  62  84 CALM      29.93S
MOUNT POCONO   LGT RAIN  64  57  78 SE9       29.99S
ALLENTOWN      CLOUDY    68  61  78 NE5       29.95F
QUAKERTOWN*    PTSUNNY   70  63  78 SE3       29.97S
READING        CLOUDY    70  62  76 SE3       29.92S
LANCASTER      LGT RAIN  69  65  86 SE3       29.93R
COATESVILLE    PTSUNNY   70  66  88 SE7       29.96S
POTTSTOWN      CLOUDY    71  65  81 CALM      29.96S
BLUE BELL      MOSUNNY   75  64  69 SE3       29.95S
DOYLESTOWN     MOSUNNY   68  62  81 S7        29.96S
WILLOW GROVE   NOT AVBL
NORTH PHILA    MOSUNNY   75  61  61 VRB3      29.97S
PHILADELPHIA   MOSUNNY   76  66  71 S9        29.95F
$$


USA.gov is the U.S. government's official web portal to all federal, state and local government web resources and services.